This demonstration page uses our WeatherBlox Daily Observations layout. Learn more.

Left ArrowRight Arrow

39.12711, -84.51439

Hourly Observations for October 8, 2021

Temp ( °F °C ) Dew Point ( °F °C ) Humidity (%) Winds ( mph kmh ) Pressure ( in mb ) Visibility ( mi km ) Precip ( " mm )
12:01 am 00:01 Mostly Cloudy 68 20 68 20 100 100 Calm 30.08 1019 8 13 0.00 0.00
12:08 am 00:08 Mostly Cloudy with Mist and Fog 66 18.9 66 18.9 100 100 Calm 30.07 1018 2 2 0.00 0.00
12:19 am 00:19 Partly Cloudy with Fog 66 18.9 66 18.9 100 100 Calm 30.07 1018 1 1 0.00 0.00
12:25 am 00:25 Partly Cloudy with Fog 66 18.9 66 18.9 100 100 Calm 30.07 1018 0 0 0.00 0.00
12:34 am 00:34 Mostly Cloudy with Mist and Fog 67 19.4 67 19.4 100 100 Calm 30.06 1018 1 1 0.00 0.00
12:46 am 00:46 Mostly Cloudy with Fog 66 18.9 66 18.9 100 100 Calm 30.06 1018 0 0 0.00 0.00
12:53 am 00:53 Cloudy with Fog 67 19.4 67 19.4 100 100 Calm 30.06 1018 0 0 0.00 0.00
1:07 am 01:07 Mostly Cloudy with Fog 66 18.9 66 18.9 100 100 Calm 30.05 1018 0 0 0.00 0.00
1:24 am 01:24 Mostly Cloudy with Fog 65 18.3 65 18.3 100 100 Calm 30.05 1018 N/A 0.00 0.00
1:42 am 01:42 Mostly Cloudy with Fog 66 18.9 66 18.9 100 100 Calm 30.04 1017 0 0 0.00 0.00
1:53 am 01:53 Mostly Cloudy with Fog 66 18.9 66 18.9 100 100 Calm 30.04 1017 0 0 0.00 0.00
2:51 am 02:51 Cloudy with Fog 66 19 66 19 100 100 Calm 30.05 1018 1 1 0.00 0.00
2:53 am 02:53 Cloudy with Fog 66 18.9 66 18.9 100 100 Calm 30.05 1018 1 1 0.00 0.00
3:02 am 03:02 Cloudy with Fog 67 19.4 67 19.4 100 100 Calm 30.05 1018 1 1 0.00 0.00
3:11 am 03:11 Cloudy with Mist and Fog 66 18.9 66 18.9 100 100 Calm 30.05 1018 1 2 0.00 0.00
3:26 am 03:26 Cloudy with Mist and Fog 66 18.9 66 18.9 100 100 Calm 30.05 1018 2 2 0.00 0.00
3:38 am 03:38 Cloudy with Mist and Fog 66 18.9 66 18.9 100 100 Calm 30.04 1017 3 4 0.00 0.00
3:53 am 03:53 Cloudy with Mist and Fog 66 18.9 66 18.9 100 100 Calm 30.04 1017 3 5 0.00 0.00
4:10 am 04:10 Cloudy with Mist and Fog 66 18.9 66 18.9 100 100 Calm 30.04 1017 2 3 0.00 0.00
4:28 am 04:28 Mostly Cloudy 65 18.3 65 18.3 100 100 SSW 3 6 30.04 1017 8 13 0.00 0.00
4:53 am 04:53 Mostly Clear 65 18.3 65 18.3 100 100 WSW 3 6 30.04 1017 8 13 0.00 0.00
4:58 am 04:58 Mostly Clear with Mist and Fog 65 18.3 65 18.3 100 100 SSW 5 7 30.04 1017 2 3 0.00 0.00
5:01 am 05:01 Mostly Clear with Mist and Fog 64 17.8 64 17.8 100 100 SSW 3 6 30.05 1018 1 1 0.00 0.00
5:15 am 05:15 Mostly Cloudy with Mist and Fog 64 17.8 64 17.8 100 100 S 5 7 30.05 1018 1 2 0.00 0.00
5:19 am 05:19 Mostly Cloudy with Mist and Fog 63 17.2 63 17.2 100 100 SSW 6 9 30.05 1018 3 5 0.00 0.00
5:53 am 05:53 Cloudy 65 18.3 65 18.3 100 100 Calm 30.04 1017 9 14 0.00 0.00
6:02 am 06:02 Mostly Cloudy with Mist and Fog 64 17.8 64 17.8 100 100 SSW 3 6 30.05 1018 2 2 0.00 0.00
6:12 am 06:12 Mostly Cloudy with Fog 63 17.2 63 17.2 100 100 S 3 6 30.05 1018 1 1 0.00 0.00
6:21 am 06:21 Mostly Cloudy with Mist and Fog 63 17.2 63 17.2 100 100 Calm 30.05 1018 1 1 0.00 0.00
6:44 am 06:44 Mostly Cloudy with Fog 63 17.2 63 17.2 100 100 SW 3 6 30.05 1018 0 0 0.00 0.00
6:53 am 06:53 Partly Cloudy with Fog 61 16.1 61 16.1 100 100 SSW 3 6 30.06 1018 5 8 0.00 0.00
7:35 am 07:35 Mostly Cloudy with Patchy Fog 61 16.1 61 16.1 100 100 ESE 3 6 30.07 1018 1 1 0.00 0.00
7:53 am 07:53 Partly Cloudy with Patchy Fog 62 16.7 62 16.7 100 100 Calm 30.06 1018 2 2 0.00 0.00
8:09 am 08:09 Mostly Cloudy with Patchy Fog 63 17.2 63 17.2 100 100 Calm 30.07 1018 5 8 0.00 0.00
8:53 am 08:53 Mostly Cloudy with Mist and Fog 65 18.3 65 18.3 100 100 Calm 30.07 1018 5 8 0.00 0.00
9:53 am 09:53 Cloudy with Mist and Fog 69 20.6 68 20 96 96 SSW 5 7 30.09 1019 5 8 0.00 0.00
10:53 am 10:53 Cloudy 70 21.1 67 19.4 90 90 SW 3 6 30.08 1019 7 11 0.00 0.00
11:51 am 11:51 Partly Cloudy 73 23 66 19 78 78 WSW 7 11 30.07 1018 10 16 0.00 0.00
11:53 am 11:53 Mostly Cloudy 73 22.8 66 18.9 79 79 SW 8 13 30.08 1019 10 16 0.00 0.00
12:53 pm 12:53 Mostly Cloudy 77 25 67 19.4 71 71 WNW 3 6 30.06 1018 10 16 0.00 0.00
1:53 pm 13:53 Partly Cloudy 77 25 66 18.9 69 69 Calm 30.04 1017 10 16 0.00 0.00
2:53 pm 14:53 Partly Cloudy 78 25.6 66 18.9 67 67 SSE 6 9 30.02 1017 10 16 0.00 0.00
3:53 pm 15:53 Partly Cloudy 78 25.6 63 17.2 60 60 S 5 7 30.00 1016 10 16 0.00 0.00
4:53 pm 16:53 Mostly Cloudy 77 25 65 18.3 66 66 VRB 6 9 29.98 1015 10 16 0.00 0.00
5:53 pm 17:53 Mostly Cloudy 74 23.3 67 19.4 79 79 E 3 6 29.98 1015 10 16 0.00 0.00
6:53 pm 18:53 Partly Cloudy 71 21.7 68 20 90 90 Calm 29.99 1016 10 16 0.00 0.00
7:29 pm 19:29 Partly Cloudy 69 20.6 67 19.4 93 93 Calm 30.00 1016 10 16 0.00 0.00
7:53 pm 19:53 Clear 68 20 67 19.4 96 96 SSW 3 6 30.01 1016 10 16 0.00 0.00
8:53 pm 20:53 Partly Cloudy 66 18.9 64 17.8 93 93 Calm 30.01 1016 10 16 0.00 0.00
9:53 pm 21:53 Mostly Clear 66 18.9 65 18.3 96 96 WSW 3 6 30.02 1017 10 16 0.00 0.00
10:53 pm 22:53 Mostly Clear with Mist and Fog 62 16.7 62 16.7 100 100 S 3 6 30.02 1017 3 4 0.00 0.00
11:10 pm 23:10 Clear with Mist and Fog 63 17.2 63 17.2 100 100 Calm 30.02 1017 1 2 0.00 0.00
11:17 pm 23:17 Clear with Mist and Fog 64 17.8 64 17.8 100 100 Calm 30.02 1017 4 6 0.00 0.00
11:24 pm 23:24 Clear with Mist and Fog 63 17.2 63 17.2 100 100 Calm 30.02 1017 1 2 0.00 0.00
11:28 pm 23:28 Clear with Fog 61 16.1 61 16.1 100 100 Calm 30.03 1017 0 0 0.00 0.00
11:38 pm 23:38 Clear with Mist and Fog 63 17.2 63 17.2 100 100 Calm 30.02 1017 1 2 0.00 0.00
11:40 pm 23:40 Clear with Mist and Fog 63 17.2 63 17.2 100 100 Calm 30.02 1017 4 6 0.00 0.00
11:53 pm 23:53 Clear with Mist and Fog 62 16.7 62 16.7 100 100 Calm 30.03 1017 4 6 0.00 0.00

Powered by AerisWeather